Regional Weather Roundup
Issued by NWS

Home | Current Version | Previous Version | Text Only | Print | Product List | Glossary On
Versions: 1 2 3 4 5 6 7 8 9 10 11 12 13 14 15 16 17 18 19 20 21 22 23 24 25 26 27 28 29 30 31 32 33 34 35 36 37 38 39 40 41 42 43 44 45 46 47 48 49 50
000
ASUS43 KTOP 040408
RWRKS

WEATHER ROUNDUP FOR KANSAS
NATIONAL WEATHER SERVICE GOODLAND KS
1100 PM CDT TUE MAY 03 2016

NOTE:  "FAIR" INDICATES FEW OR NO CLOUDS BELOW 12,000 FEET WITH NO
SIGNIFICANT WEATHER AND/OR OBSTRUCTIONS TO VISIBILITY.

KSZ001>006-013>018-027>032-041>047-040500-
NORTHWEST KANSAS

CITY           SKY/WX    TMP DP  RH WIND       PRES   REMARKS
GOODLAND       CLEAR     46  37  71 W8        30.13R
HAYS           CLEAR     52  39  62 W5        30.05S
HILL CITY      CLEAR     51  43  74 W7        30.06R
RUSSELL        CLEAR     53  45  74 W7        30.02S
$$

KSZ061>065-074>080-084>089-040500-
SOUTHWEST KANSAS

CITY           SKY/WX    TMP DP  RH WIND       PRES   REMARKS
DODGE CITY     CLEAR     49  42  77 NW6       30.10S
ELKHART          N/A     55  38  53 CALM        N/A
GARDEN CITY    CLEAR     52  42  69 N3        30.11R
GREAT BEND     CLEAR     48  43  81 W8        30.05S
LIBERAL        CLEAR     50  37  62 W6        30.13S
PRATT          CLEAR     49  43  81 W7        30.06S
$$

KSZ066>073-081>083-090>101-040500-
SOUTHEAST KANSAS

CITY           SKY/WX    TMP DP  RH WIND       PRES   REMARKS
CHANUTE        CLEAR     56  47  71 SW9       29.97F
COFFEYVILLE    PTCLDY    58  49  72 S7        29.99F
HUTCHINSON     CLEAR     51  45  79 NW5       30.02S
MEDICINE LODGE   N/A     51  45  79 N5        30.04S
NEWTON         CLEAR     55  43  62 W6        30.03S
PARSONS        MOCLDY    55  50  83 CALM      29.99F
WICHITA INTL   PTCLDY    58  45  62 NW8       30.01R
WICHITA JABRA  CLEAR     59  46  62 W6        30.00S
WICHITA MCCONL CLEAR     61  47  58 W3        30.01R
WINFIELD       CLEAR     55  45  68 SW7       30.39F
$$

KSZ007>012-019>026-033>040-048>060-102>105-040500-
NORTHEAST KANSAS

CITY           SKY/WX    TMP DP  RH WIND       PRES   REMARKS
CONCORDIA      CLEAR     55  43  63 SW8       29.98S
EMPORIA        CLEAR     57  46  66 W6        29.97S
LAWRENCE       CLEAR     50  47  89 CALM      29.94F
MANHATTAN      CLEAR     52  46  80 CALM      29.97S
MARYSVILLE     CLEAR     54  43  66 SW5       29.94F
OLATHE IND     CLEAR     54  46  74 SW3       29.95F
OLATHE EXE     CLEAR     56  45  66 CALM      29.94F
SALINA         CLEAR     59  44  57 W8        30.00S
TOPEKA BILLARD CLEAR     55  47  74 CALM      29.94F
TOPEKA FORBES  CLEAR     54  47  77 SW3       29.95S
$$




USA.gov is the U.S. government's official web portal to all federal, state and local government web resources and services.